TAM4531 SBGR-SBLO

Flight info

Callsign TAM4531
Flight time 0h 52m
Altitude 34000
Route EGEVA UZ58 UMPIG
Aircraft A320/M-SDE3FGHIRWY/LB1

Departure

Time 2026-04-23 03:27
Airport São Paulo/Guarulhos–Governor André Franco Montoro International Airport (SBGR)

Arrival

Time 2026-04-23 04:19
Airport Governor José Richa Airport (SBLO)
Time Latitude Longitude Altitude Speed Heading
2026-04-23 02:44 -23.42841 -46.48053 2468 ft 0 kts 85°
2026-04-23 02:55 -23.42801 -46.48056 2470 ft 0 kts 85°
2026-04-23 02:56 -23.42795 -46.48051 2468 ft 0 kts 85°
2026-04-23 02:59 -23.42796 -46.48051 2468 ft 0 kts 85°
2026-04-23 02:59 -23.42795 -46.48051 2468 ft 0 kts 85°
2026-04-23 03:00 -23.42796 -46.48051 2468 ft 0 kts 85°
2026-04-23 03:12 -23.42796 -46.48061 2468 ft 3 kts 85°
2026-04-23 03:13 -23.42798 -46.48080 2468 ft 3 kts 85°
2026-04-23 03:13 -23.42798 -46.48099 2468 ft 2 kts 128°
2026-04-23 03:13 -23.42784 -46.48108 2470 ft 2 kts 198°
2026-04-23 03:13 -23.42782 -46.48108 2470 ft 0 kts 197°
2026-04-23 03:17 -23.42791 -46.48107 2470 ft 5 kts 174°
2026-04-23 03:18 -23.42852 -46.48107 2468 ft 13 kts 192°
2026-04-23 03:18 -23.42927 -46.48132 2468 ft 11 kts 197°
2026-04-23 03:18 -23.43006 -46.48135 2470 ft 12 kts 176°
2026-04-23 03:18 -23.43071 -46.48129 2468 ft 8 kts 172°
2026-04-23 03:19 -23.43129 -46.48119 2472 ft 9 kts 169°
2026-04-23 03:19 -23.43182 -46.48109 2470 ft 6 kts 198°
2026-04-23 03:19 -23.43208 -46.48151 2472 ft 9 kts 248°
2026-04-23 03:19 -23.43227 -46.48214 2473 ft 6 kts 255°
2026-04-23 03:20 -23.43238 -46.48262 2469 ft 7 kts 256°
2026-04-23 03:20 -23.43257 -46.48323 2472 ft 10 kts 238°
2026-04-23 03:20 -23.43305 -46.48352 2472 ft 0 kts 199°
2026-04-23 03:20 -23.43315 -46.48356 2470 ft 3 kts 197°
2026-04-23 03:21 -23.43340 -46.48354 2471 ft 5 kts 165°
2026-04-23 03:21 -23.43378 -46.48340 2470 ft 7 kts 161°
2026-04-23 03:21 -23.43407 -46.48288 2470 ft 10 kts 95°
2026-04-23 03:21 -23.43398 -46.48224 2473 ft 0 kts 74°
2026-04-23 03:26 -23.43375 -46.48136 2470 ft 40 kts 74°
2026-04-23 03:26 -23.43229 -46.47605 2469 ft 103 kts 73°
2026-04-23 03:26 -23.42983 -46.46679 2472 ft 150 kts 74°
2026-04-23 03:26 -23.42666 -46.45480 2653 ft 176 kts 73°
2026-04-23 03:27 -23.42276 -46.44110 2959 ft 201 kts 72°
2026-04-23 03:27 -23.41842 -46.42542 3198 ft 232 kts 73°
2026-04-23 03:27 -23.41344 -46.40778 3635 ft 254 kts 73°
2026-04-23 03:27 -23.40791 -46.38917 4408 ft 262 kts 72°
2026-04-23 03:28 -23.40259 -46.37003 5274 ft 267 kts 80°
2026-04-23 03:28 -23.40356 -46.34979 6038 ft 274 kts 108°
2026-04-23 03:28 -23.41003 -46.33011 6835 ft 279 kts 110°
2026-04-23 03:28 -23.41660 -46.31041 7616 ft 282 kts 110°
2026-04-23 03:29 -23.42324 -46.29026 8422 ft 284 kts 110°
2026-04-23 03:29 -23.43034 -46.27008 8988 ft 287 kts 118°
2026-04-23 03:29 -23.44362 -46.25433 9157 ft 285 kts 150°
2026-04-23 03:29 -23.46297 -46.24942 9586 ft 289 kts 185°
2026-04-23 03:30 -23.48256 -46.25316 10372 ft 291 kts 189°
2026-04-23 03:30 -23.50312 -46.25751 10635 ft 312 kts 190°
2026-04-23 03:30 -23.52454 -46.26488 10802 ft 335 kts 205°
2026-04-23 03:30 -23.54414 -46.27924 11265 ft 346 kts 221°
2026-04-23 03:31 -23.55957 -46.29961 11855 ft 352 kts 238°
2026-04-23 03:31 -23.56903 -46.32478 12490 ft 358 kts 255°
2026-04-23 03:31 -23.57421 -46.35109 13126 ft 361 kts 257°
2026-04-23 03:31 -23.57953 -46.37827 13774 ft 364 kts 257°
2026-04-23 03:32 -23.58489 -46.40535 14363 ft 367 kts 257°
2026-04-23 03:32 -23.59029 -46.43260 14920 ft 369 kts 257°
2026-04-23 03:32 -23.59574 -46.46007 15475 ft 372 kts 257°
2026-04-23 03:32 -23.60123 -46.48765 16003 ft 374 kts 257°
2026-04-23 03:33 -23.60677 -46.51545 16171 ft 375 kts 257°
2026-04-23 03:33 -23.61185 -46.54350 16582 ft 378 kts 259°
2026-04-23 03:33 -23.61623 -46.57185 17158 ft 380 kts 260°
2026-04-23 03:33 -23.62025 -46.60036 17702 ft 383 kts 261°
2026-04-23 03:34 -23.62429 -46.62914 18244 ft 385 kts 258°
2026-04-23 03:34 -23.63163 -46.65726 18747 ft 387 kts 247°
2026-04-23 03:34 -23.64392 -46.68329 19235 ft 387 kts 237°
2026-04-23 03:34 -23.65839 -46.70811 19772 ft 388 kts 237°
2026-04-23 03:35 -23.67279 -46.73300 20309 ft 389 kts 239°
2026-04-23 03:35 -23.68341 -46.76017 20823 ft 391 kts 254°
2026-04-23 03:35 -23.68722 -46.78958 21336 ft 395 kts 268°
2026-04-23 03:35 -23.68387 -46.81948 21842 ft 400 kts 282°
2026-04-23 03:36 -23.67345 -46.84781 22322 ft 407 kts 297°
2026-04-23 03:36 -23.65772 -46.87365 22778 ft 411 kts 301°
2026-04-23 03:36 -23.64140 -46.89931 23164 ft 413 kts 301°
2026-04-23 03:36 -23.62496 -46.92514 23568 ft 416 kts 301°
2026-04-23 03:37 -23.60843 -46.95112 23948 ft 418 kts 301°
2026-04-23 03:37 -23.59183 -46.97720 24292 ft 420 kts 301°
2026-04-23 03:37 -23.57521 -47.00334 24638 ft 421 kts 301°
2026-04-23 03:37 -23.55849 -47.02968 24978 ft 422 kts 301°
2026-04-23 03:38 -23.54199 -47.05568 25313 ft 424 kts 301°
2026-04-23 03:38 -23.52521 -47.08213 25642 ft 425 kts 301°
2026-04-23 03:38 -23.50834 -47.10870 25971 ft 427 kts 301°
2026-04-23 03:38 -23.49139 -47.13534 26289 ft 429 kts 302°
2026-04-23 03:39 -23.47435 -47.16210 26605 ft 431 kts 302°
2026-04-23 03:39 -23.45723 -47.18901 26901 ft 432 kts 302°
2026-04-23 03:39 -23.44008 -47.21595 27212 ft 434 kts 302°
2026-04-23 03:39 -23.42285 -47.24298 27521 ft 435 kts 302°
2026-04-23 03:40 -23.40555 -47.27009 27816 ft 437 kts 302°
2026-04-23 03:40 -23.38819 -47.29730 28131 ft 439 kts 302°
2026-04-23 03:40 -23.37100 -47.32419 28427 ft 440 kts 302°
2026-04-23 03:40 -23.35349 -47.35158 28756 ft 442 kts 302°
2026-04-23 03:41 -23.33593 -47.37910 29085 ft 443 kts 302°
2026-04-23 03:41 -23.31837 -47.40663 29471 ft 443 kts 302°
2026-04-23 03:41 -23.30078 -47.43414 29816 ft 444 kts 302°
2026-04-23 03:41 -23.28312 -47.46170 30163 ft 444 kts 302°
2026-04-23 03:42 -23.26550 -47.48921 30555 ft 442 kts 302°
2026-04-23 03:42 -23.24799 -47.51660 30938 ft 441 kts 302°
2026-04-23 03:42 -23.23046 -47.54394 31309 ft 440 kts 302°
2026-04-23 03:42 -23.21296 -47.57118 31671 ft 439 kts 302°
2026-04-23 03:43 -23.19611 -47.59877 32037 ft 437 kts 296°
2026-04-23 03:43 -23.18363 -47.62864 32397 ft 433 kts 286°
2026-04-23 03:43 -23.17635 -47.66022 32746 ft 430 kts 277°
2026-04-23 03:43 -23.17403 -47.69254 33105 ft 429 kts 271°
2026-04-23 03:44 -23.17291 -47.72490 33467 ft 428 kts 271°
2026-04-23 03:44 -23.17172 -47.75727 33840 ft 428 kts 271°
2026-04-23 03:44 -23.17052 -47.78958 34083 ft 428 kts 271°
2026-04-23 03:44 -23.16932 -47.82200 34133 ft 431 kts 271°
2026-04-23 03:45 -23.16688 -47.88715 34137 ft 432 kts 271°
2026-04-23 03:45 -23.16439 -47.95236 34135 ft 432 kts 271°
2026-04-23 03:46 -23.16179 -48.01759 34137 ft 432 kts 271°
2026-04-23 03:46 -23.15922 -48.08291 34137 ft 433 kts 271°
2026-04-23 03:47 -23.15670 -48.14824 34138 ft 433 kts 271°
2026-04-23 03:47 -23.15405 -48.21364 34140 ft 433 kts 271°
2026-04-23 03:48 -23.15142 -48.27899 34140 ft 433 kts 271°
2026-04-23 03:48 -23.14879 -48.34427 34142 ft 432 kts 271°
2026-04-23 03:49 -23.14614 -48.40950 34143 ft 432 kts 271°
2026-04-23 03:49 -23.14340 -48.47472 34149 ft 432 kts 271°
2026-04-23 03:50 -23.14063 -48.53986 34154 ft 431 kts 271°
2026-04-23 03:50 -23.14340 -48.60454 34154 ft 429 kts 264°
2026-04-23 03:51 -23.14905 -48.66904 34153 ft 428 kts 264°
2026-04-23 03:51 -23.15464 -48.73339 34154 ft 427 kts 264°
2026-04-23 03:52 -23.16011 -48.79769 34152 ft 427 kts 264°
2026-04-23 03:52 -23.16550 -48.86188 34147 ft 427 kts 264°
2026-04-23 03:53 -23.17001 -48.91527 34134 ft 427 kts 264°
2026-04-23 03:53 -23.17547 -48.97946 34133 ft 427 kts 264°
2026-04-23 03:54 -23.18088 -49.04366 34132 ft 426 kts 264°
2026-04-23 03:54 -23.18629 -49.10783 34136 ft 426 kts 264°
2026-04-23 03:55 -23.19157 -49.17205 34138 ft 426 kts 264°
2026-04-23 03:55 -23.19730 -49.23620 34137 ft 427 kts 264°
2026-04-23 03:56 -23.20331 -49.30044 34133 ft 427 kts 264°
2026-04-23 03:56 -23.20919 -49.36452 34137 ft 426 kts 264°
2026-04-23 03:57 -23.21475 -49.42861 34137 ft 425 kts 264°
2026-04-23 03:57 -23.21950 -49.49265 34133 ft 425 kts 265°
2026-04-23 03:58 -23.22410 -49.55667 34129 ft 424 kts 265°
2026-04-23 03:58 -23.22878 -49.62057 34125 ft 424 kts 265°
2026-04-23 03:59 -23.23348 -49.68436 34124 ft 423 kts 265°
2026-04-23 03:59 -23.23819 -49.74821 34124 ft 423 kts 265°
2026-04-23 04:00 -23.24319 -49.81193 33385 ft 425 kts 265°
2026-04-23 04:00 -23.24581 -49.84418 32522 ft 429 kts 265°
2026-04-23 04:00 -23.24842 -49.87649 31860 ft 428 kts 265°
2026-04-23 04:01 -23.25096 -49.90841 31383 ft 422 kts 265°
2026-04-23 04:01 -23.25344 -49.94009 30850 ft 419 kts 265°
2026-04-23 04:01 -23.25591 -49.97156 30328 ft 416 kts 266°
2026-04-23 04:01 -23.25835 -50.00280 29741 ft 413 kts 265°
2026-04-23 04:02 -23.26075 -50.03368 29228 ft 408 kts 265°
2026-04-23 04:02 -23.26312 -50.06424 28709 ft 404 kts 265°
2026-04-23 04:02 -23.26546 -50.09448 28202 ft 400 kts 265°
2026-04-23 04:02 -23.26777 -50.12446 27697 ft 397 kts 265°
2026-04-23 04:03 -23.27006 -50.15429 27195 ft 394 kts 265°
2026-04-23 04:03 -23.27233 -50.18387 26685 ft 392 kts 265°
2026-04-23 04:03 -23.27460 -50.21338 26207 ft 391 kts 265°
2026-04-23 04:03 -23.27684 -50.24276 25727 ft 390 kts 265°
2026-04-23 04:04 -23.27907 -50.27216 25255 ft 389 kts 265°
2026-04-23 04:04 -23.28129 -50.30145 24792 ft 389 kts 265°
2026-04-23 04:04 -23.28352 -50.33074 24341 ft 388 kts 265°
2026-04-23 04:04 -23.28577 -50.36003 23900 ft 388 kts 265°
2026-04-23 04:05 -23.28733 -50.38932 23402 ft 389 kts 271°
2026-04-23 04:05 -23.28464 -50.41853 22912 ft 387 kts 277°
2026-04-23 04:05 -23.28101 -50.44747 22429 ft 386 kts 277°
2026-04-23 04:05 -23.27744 -50.47636 21935 ft 385 kts 277°
2026-04-23 04:06 -23.27393 -50.50516 21448 ft 383 kts 277°
2026-04-23 04:06 -23.27044 -50.53388 20928 ft 383 kts 277°
2026-04-23 04:06 -23.26695 -50.56251 20421 ft 382 kts 277°
2026-04-23 04:06 -23.26344 -50.59114 19890 ft 382 kts 277°
2026-04-23 04:07 -23.25994 -50.61974 19361 ft 381 kts 277°
2026-04-23 04:07 -23.25644 -50.64833 18814 ft 382 kts 277°
2026-04-23 04:07 -23.25290 -50.67700 18255 ft 382 kts 277°
2026-04-23 04:07 -23.24934 -50.70561 17659 ft 381 kts 277°
2026-04-23 04:08 -23.24579 -50.73411 17115 ft 379 kts 277°
2026-04-23 04:08 -23.24227 -50.76244 16560 ft 377 kts 277°
2026-04-23 04:08 -23.23875 -50.79064 16010 ft 375 kts 277°
2026-04-23 04:08 -23.23528 -50.81870 15478 ft 374 kts 277°
2026-04-23 04:09 -23.23183 -50.84667 14941 ft 373 kts 277°
2026-04-23 04:09 -23.22836 -50.87459 14401 ft 372 kts 277°
2026-04-23 04:09 -23.22488 -50.90239 13857 ft 371 kts 277°
2026-04-23 04:09 -23.22140 -50.93018 13275 ft 370 kts 277°
2026-04-23 04:10 -23.21795 -50.95777 12740 ft 367 kts 277°
2026-04-23 04:10 -23.21455 -50.98513 12210 ft 364 kts 277°
2026-04-23 04:10 -23.21113 -51.01234 11683 ft 362 kts 277°
2026-04-23 04:10 -23.20772 -51.03937 11162 ft 360 kts 277°
2026-04-23 04:11 -23.20433 -51.06624 10638 ft 358 kts 277°
2026-04-23 04:11 -23.20100 -51.09275 10381 ft 347 kts 277°
2026-04-23 04:11 -23.19781 -51.11817 10281 ft 333 kts 277°
2026-04-23 04:11 -23.19474 -51.14271 10143 ft 322 kts 277°
2026-04-23 04:12 -23.19173 -51.16656 9771 ft 319 kts 277°
2026-04-23 04:12 -23.18864 -51.19093 9081 ft 327 kts 277°
2026-04-23 04:12 -23.18563 -51.21458 9231 ft 303 kts 277°
2026-04-23 04:12 -23.18277 -51.23699 8783 ft 304 kts 277°
2026-04-23 04:13 -23.18026 -51.25972 7985 ft 296 kts 269°
2026-04-23 04:13 -23.18417 -51.28083 7249 ft 279 kts 241°
2026-04-23 04:13 -23.19560 -51.29690 6566 ft 262 kts 214°
2026-04-23 04:13 -23.21126 -51.30555 5942 ft 247 kts 190°
2026-04-23 04:14 -23.22781 -51.30701 5321 ft 234 kts 177°
2026-04-23 04:14 -23.24382 -51.30688 4749 ft 226 kts 177°
2026-04-23 04:14 -23.25884 -51.30481 4328 ft 211 kts 159°
2026-04-23 04:14 -23.27109 -51.29768 4169 ft 190 kts 140°
2026-04-23 04:15 -23.27955 -51.28765 4040 ft 171 kts 123°
2026-04-23 04:15 -23.28426 -51.27674 3957 ft 151 kts 110°
2026-04-23 04:15 -23.29121 -51.25615 3813 ft 142 kts 111°
2026-04-23 04:16 -23.29462 -51.24612 3763 ft 141 kts 111°
2026-04-23 04:16 -23.29799 -51.23615 3698 ft 140 kts 111°
2026-04-23 04:16 -23.30134 -51.22620 3631 ft 140 kts 111°
2026-04-23 04:16 -23.30471 -51.21621 3524 ft 142 kts 110°
2026-04-23 04:17 -23.30812 -51.20608 3312 ft 141 kts 111°
2026-04-23 04:17 -23.31144 -51.19624 3110 ft 140 kts 110°
2026-04-23 04:17 -23.31478 -51.18631 2913 ft 140 kts 110°
2026-04-23 04:17 -23.31812 -51.17637 2706 ft 141 kts 110°
2026-04-23 04:18 -23.32150 -51.16625 2448 ft 144 kts 110°
2026-04-23 04:18 -23.32493 -51.15578 2227 ft 146 kts 110°
2026-04-23 04:18 -23.32844 -51.14543 2029 ft 145 kts 110°
2026-04-23 04:18 -23.33181 -51.13527 1902 ft 135 kts 111°
2026-04-23 04:19 -23.33460 -51.12684 1861 ft 88 kts 112°
2026-04-23 04:19 -23.33624 -51.12268 1849 ft 35 kts 113°
2026-04-23 04:19 -23.33678 -51.12116 1845 ft 12 kts 113°
2026-04-23 04:19 -23.33685 -51.12081 1844 ft 1 kts 25°
2026-04-23 04:20 -23.33672 -51.12089 1844 ft 2 kts 315°
2026-04-23 04:20 -23.33664 -51.12108 1845 ft 4 kts 292°
2026-04-23 04:20 -23.33652 -51.12144 1846 ft 6 kts 289°
2026-04-23 04:20 -23.33637 -51.12190 1847 ft 7 kts 289°
2026-04-23 04:21 -23.33619 -51.12244 1848 ft 8 kts 290°
2026-04-23 04:21 -23.33600 -51.12304 1850 ft 9 kts 289°
2026-04-23 04:21 -23.33579 -51.12367 1852 ft 9 kts 289°
2026-04-23 04:21 -23.33548 -51.12426 1854 ft 10 kts 314°
2026-04-23 04:22 -23.33491 -51.12480 1855 ft 12 kts 317°
2026-04-23 04:22 -23.33426 -51.12548 1857 ft 14 kts 314°
2026-04-23 04:22 -23.33384 -51.12643 1860 ft 14 kts 290°
2026-04-23 04:22 -23.33349 -51.12748 1863 ft 15 kts 290°
2026-04-23 04:23 -23.33312 -51.12861 1864 ft 16 kts 290°
2026-04-23 04:23 -23.33272 -51.12979 1868 ft 17 kts 290°
2026-04-23 04:23 -23.33229 -51.13102 1873 ft 18 kts 290°
2026-04-23 04:23 -23.33186 -51.13231 1874 ft 19 kts 290°
2026-04-23 04:24 -23.33143 -51.13363 1877 ft 19 kts 289°
2026-04-23 04:24 -23.33099 -51.13492 1881 ft 17 kts 291°
2026-04-23 04:24 -23.33060 -51.13608 1884 ft 15 kts 290°
2026-04-23 04:24 -23.33039 -51.13674 1886 ft 6 kts 289°
2026-04-23 04:25 -23.33028 -51.13707 1887 ft 3 kts 289°
2026-04-23 04:25 -23.33019 -51.13730 1885 ft 3 kts 300°
2026-04-23 04:25 -23.33000 -51.13740 1883 ft 4 kts 351°
2026-04-23 04:25 -23.32973 -51.13734 1883 ft 2 kts 18°
2026-04-23 04:26 -23.32953 -51.13727 1886 ft 4 kts 19°
2026-04-23 04:26 -23.32949 -51.13725 1888 ft 0 kts 19°